Location: Borgo
(42.3939°N, 9.2791°E)
Time: 02:10:30
(UTC+00:00)

NOAA 12 - Pass Details

Date: 24 January 2021
Orbit: 796 x 814 km, 98.5° (Epoch: 08 March)

Event Time Altitude Azimuth Distance (km) Brightness Sun altitude
Rises 16:53:56 0° 170° (S) 3,285 7.4 -5.5°
Reaches altitude 10° 16:56:16 10° 172° (S) 2,359 6.7 -5.9°
Maximum altitude 17:01:28 74° 257° (WSW) 831 4.4 -6.8°
Drops below altitude 10° 17:06:44 10° 343° (NNW) 2,379 6.5 -7.7°
Sets 17:09:05 0° 345° (NNW) 3,315 7.3 -8.1°
